User: anonymous   Login
Location: Deer Lake
(49.1830°N, 57.4330°W)
Time: 21:22:50
(UTC-02:-30)
Language:

Cosmos 1707 - Orbit

View from above orbital plane
View from above orbital plane
View from above satellite
View from above satellite

Ground track
Ground track

The orbit data is extracted from the following two-line orbital elements,

1 16326U 85113A   16119.74457215  .00000931  00000-0  51646-4 0  9998
2 16326  82.5114 255.2301 0009499 296.2311  63.7943 15.12545649654687
Epoch (UTC): 28 April 2016 17:52:11
Eccentricity: 0.0009499
inclination: 82.5114°
perigee height: 522 km
apogee height: 535 km
right ascension of ascending node: 255.2301°
argument of perigee: 296.2311°
revolutions per day: 15.12545649
mean anomaly at epoch: 63.7943°
orbit number at epoch: 65468

The dashed part of the orbit path shows where the satellite is in the earth's shadow,  

DLR